CW6020 Weather Reports


time (UTC)temp
F
wind
direction
speed
knots
gust
knots
rain 1hr
in
rain 24hr
in
rain mn
in
humidity
%
barometer
mb
20260508081021 62 342 4.3 8.7 0.00 2.49 0.00 82 1012.3
20260508080020 62 350 4.3 10.4 0.00 2.49 0.00 82 1012.4
20260508075020 61 321 3.5 10.4 0.00 2.49 0.00 84 1012.2
20260508074020 60 8 3.5 9.6 0.00 2.49 0.00 84 1012.2
20260508073020 60 322 2.6 5.2 0.00 2.49 0.00 85 1012.2
20260508072020 60 345 5.2 12.2 0.00 2.49 0.00 85 1012.1
20260508071021 60 355 3.5 7.8 0.00 2.49 0.00 85 1012.2
20260508070021 60 340 5.2 12.2 0.00 2.49 0.00 85 1011.9
20260508065021 59 345 4.3 8.7 0.00 2.49 0.00 85 1012.0
20260508064021 59 355 5.2 8.7 0.00 2.49 0.00 86 1012.0
20260508063021 59 304 3.5 7.8 0.00 2.49 0.00 86 1012.2
20260508062021 59 350 4.3 7.8 0.00 2.49 0.00 85 1012.0
20260508061040 59 341 4.3 8.7 0.00 2.49 0.00 85 1011.6
20260508055041 58 347 5.2 8.7 0.00 2.49 0.00 86 1011.6
20260508054021 58 337 4.3 7.0 0.00 2.49 0.00 86 1011.6
20260508053020 58 323 2.6 7.0 0.00 2.49 0.00 86 1011.4
20260508052021 58 343 4.3 7.8 0.00 2.49 0.00 85 1011.2
20260508051020 58 340 4.3 7.8 0.00 2.49 0.00 85 1011.1
20260508050021 58 346 5.2 7.8 0.00 2.49 0.00 84 1010.9
20260508045020 58 341 4.3 8.7 0.00 2.49 0.00 83 1010.8
20260508044040 57 347 4.3 7.0 0.00 2.49 0.00 83 1010.9
20260508043020 58 341 3.5 8.7 0.00 2.49 0.00 82 1011.0
20260508042020 57 338 3.5 7.0 0.00 2.49 0.00 83 1010.8
20260508041021 57 340 3.5 7.0 0.00 2.49 0.00 82 1010.8
20260508040021 58 342 4.3 10.4 0.00 2.49 0.00 82 1010.8
20260508035021 58 343 7.0 12.2 0.00 2.49 0.00 82 1011.0
20260508034021 58 337 5.2 9.6 0.00 2.49 0.00 81 1010.8
20260508033041 57 340 6.1 12.2 0.00 2.49 0.00 82 1010.9
20260508032041 57 341 4.3 9.6 0.00 2.49 0.00 81 1010.9
20260508031041 57 336 4.3 8.7 0.00 2.49 0.00 82 1011.1
20260508030021 57 341 6.1 11.3 0.00 2.49 0.00 83 1010.9
20260508025021 56 346 6.1 13.0 0.00 2.49 0.00 84 1010.8
20260508024021 56 343 6.1 9.6 0.00 2.49 0.00 85 1011.1
20260508023021 55 338 5.2 10.4 0.00 2.49 0.00 86 1010.9
20260508022121 52 307 0.9 2.6 0.00 2.49 0.00 89 1011.1
20260508021021 52 32 0.9 2.6 0.00 2.49 0.00 90 1011.2
20260508020041 53 96 1.7 2.6 0.00 2.49 0.00 89 1011.2
20260508015021 53 114 0.0 2.6 0.00 2.49 0.00 86 1011.2
20260508014020 53 87 0.9 2.6 0.00 2.49 0.00 87 1011.4
20260508013021 53 112 0.9 2.6 0.00 2.49 0.00 86 1011.5
20260508012041 54 63 0.9 3.5 0.00 2.49 0.00 87 1011.6
20260508011041 54 100 1.7 2.6 0.00 2.49 0.00 83 1011.9
20260508010020 55 96 1.7 3.5 0.00 2.49 0.00 83 1011.9
20260508005021 55 99 1.7 3.5 0.00 2.49 0.00 81 1011.9
20260508004020 56 109 1.7 2.6 0.00 2.49 0.00 78 1011.9
20260508003021 58 322 1.7 5.2 0.00 2.49 0.00 73 1011.9
20260508002021 58 344 4.3 8.7 0.00 2.49 0.00 72 1011.8
20260508001020 58 336 4.3 8.7 0.00 2.49 0.00 71 1011.8
20260508000020 57 332 3.5 7.8 0.00 2.49 0.00 77 1011.9
20260507235020 57 321 2.6 6.1 0.00 2.49 0.00 77 1012.0
20260507234020 58 340 5.2 12.2 0.00 2.49 0.00 77 1012.0
20260507233020 57 325 3.5 9.6 0.00 2.49 0.00 78 1011.9
20260507232020 58 321 3.5 7.0 0.00 2.49 0.00 77 1012.0
20260507231021 58 326 3.5 7.8 0.00 2.49 0.00 80 1012.2
20260507230021 58 311 3.5 11.3 0.00 2.49 0.00 80 1012.2
20260507225021 57 334 5.2 10.4 0.00 2.49 0.00 82 1012.3
20260507224021 56 327 5.2 8.7 0.00 2.49 0.00 86 1012.3
20260507223021 56 315 3.5 8.7 0.00 2.49 0.00 87 1012.2
20260507222021 56 328 4.3 8.7 0.00 2.49 0.00 86 1012.1
20260507221021 56 324 3.5 8.7 0.00 2.49 0.00 86 1012.3
20260507220025 57 302 2.6 8.7 0.00 2.49 0.00 85 1012.5
20260507215021 57 330 7.0 11.3 0.00 2.49 2.49 84 1012.6
20260507214022 56 333 5.2 12.2 0.00 2.49 2.49 86 1012.6
20260507213021 56 335 6.1 12.2 0.00 2.49 2.49 86 1012.7
20260507212021 55 324 6.1 12.2 0.01 2.49 2.49 90 1012.6
20260507211041 55 338 6.1 11.3 0.01 2.49 2.49 91 1012.5
20260507210021 56 326 3.5 9.6 0.01 2.49 2.49 89 1012.4
20260507205020 55 332 5.2 9.6 0.01 2.49 2.49 92 1012.2
20260507204021 54 326 4.3 8.7 0.02 2.49 2.49 95 1011.9
20260507203021 54 337 3.5 7.8 0.03 2.49 2.49 96 1011.8
20260507202021 54 310 1.7 3.5 0.04 2.48 2.48 97 1011.7
20260507201041 54 309 0.9 3.5 0.07 2.48 2.48 97 1011.7
20260507200020 54 302 0.0 1.7 0.09 2.48 2.48 97 1011.6
20260507195041 54 184 0.0 1.7 0.13 2.48 2.48 96 1011.7
20260507194020 54 131 0.9 2.6 0.15 2.47 2.47 97 1011.7
20260507193021 54 140 0.9 3.5 0.18 2.46 2.46 97 1011.8
20260507192021 54 137 1.7 3.5 0.20 2.44 2.44 96 1011.9
20260507191020 54 52 0.0 2.6 0.20 2.41 2.41 96 1011.7
20260507190041 54 327 0.9 1.7 0.20 2.39 2.39 96 1011.6
20260507185035 54 109 1.7 2.6 0.19 2.35 2.35 96 1011.7
20260507184021 54 29 0.0 1.7 0.19 2.32 2.32 96 1011.7
20260507183021 54 191 0.9 2.6 0.21 2.28 2.28 97 1011.6
20260507182023 55 129 0.9 3.5 0.32 2.24 2.24 96 1011.6
20260507181021 55 207 1.7 3.5 0.46 2.21 2.21 96 1011.4
20260507180021 54 221 0.0 1.7 0.65 2.18 2.18 96 1011.2
20260507175021 55 78 0.9 4.3 0.85 2.16 2.16 96 1011.2
20260507174021 55 225 1.7 3.5 0.98 2.13 2.13 95 1011.0
20260507173021 55 217 0.9 3.5 1.11 2.06 2.06 95 1010.8
20260507172021 55 322 2.6 9.6 1.24 1.92 1.92 95 1010.4
20260507171021 55 217 2.6 4.3 1.53 1.75 1.75 95 1010.5
20260507170021 55 167 0.9 5.2 1.53 1.54 1.54 94 1010.8
20260507165021 55 194 3.5 7.0 1.31 1.31 1.31 94 1010.3
20260507164025 56 198 2.6 6.1 1.14 1.14 1.14 93 1010.4
20260507163025 55 154 1.7 8.7 0.95 0.95 0.95 88 1010.0
20260507162020 56 330 2.6 14.8 0.68 0.68 0.68 85 1010.1
20260507161020 62 121 2.6 5.2 0.22 0.22 0.22 87 1010.1
20260507160021 64 161 1.7 7.8 0.00 0.00 0.00 79 1009.4
20260507155020 64 188 1.7 5.2 0.00 0.00 0.00 78 1009.4
20260507154021 64 187 2.6 6.1 0.00 0.00 0.00 78 1009.4
20260507153020 65 168 2.6 10.4 0.00 0.00 0.00 76 1009.4
20260507152021 65 213 2.6 5.2 0.00 0.00 0.00 75 1009.5
20260507151041 65 238 2.6 5.2 0.00 0.00 0.00 74 1009.3
20260507150021 66 203 2.6 5.2 0.00 0.00 0.00 72 1009.4
20260507145020 66 202 3.5 6.1 0.00 0.00 0.00 71 1009.5
20260507144020 66 208 2.6 5.2 0.00 0.00 0.00 69 1009.6
20260507143020 67 228 2.6 5.2 0.00 0.00 0.00 69 1009.7
20260507142021 67 240 3.5 6.1 0.00 0.00 0.00 69 1009.7
20260507141020 67 213 3.5 5.2 0.00 0.00 0.00 70 1009.8
20260507140021 67 228 3.5 7.0 0.00 0.00 0.00 68 1009.9
20260507135021 68 220 4.3 6.1 0.00 0.00 0.00 65 1010.0
20260507134021 68 205 3.5 5.2 0.00 0.00 0.00 63 1010.2
20260507133021 70 210 4.3 7.0 0.00 0.00 0.00 64 1010.1
20260507132021 67 238 4.3 7.0 0.00 0.00 0.00 70 1010.3
20260507131026 67 201 3.5 8.7 0.00 0.00 0.00 71 1010.4
20260507130021 68 225 4.3 6.1 0.00 0.00 0.00 69 1010.5
20260507125021 67 222 3.5 6.1 0.00 0.00 0.00 69 1010.5
20260507124021 69 214 3.5 6.1 0.00 0.00 0.00 68 1010.6
20260507123021 68 229 3.5 7.0 0.00 0.00 0.00 69 1010.6
20260507122021 67 254 3.5 6.1 0.00 0.00 0.00 72 1010.7
20260507121021 67 226 2.6 7.0 0.00 0.00 0.00 72 1010.8
20260507120041 68 223 3.5 7.0 0.00 0.00 0.00 72 1011.0
20260507115041 68 240 3.5 7.0 0.00 0.00 0.00 69 1011.1
20260507114021 68 229 4.3 7.0 0.00 0.00 0.00 68 1011.0
20260507113021 68 230 2.6 5.2 0.00 0.00 0.00 68 1011.2
20260507112021 67 214 3.5 5.2 0.00 0.00 0.00 70 1011.2
20260507111021 67 233 2.6 5.2 0.00 0.00 0.00 69 1011.4
20260507110041 67 202 2.6 6.1 0.00 0.00 0.00 68 1011.4
20260507105020 67 253 3.5 5.2 0.00 0.00 0.00 68 1011.4
20260507104021 67 216 2.6 5.2 0.00 0.00 0.00 68 1011.5
20260507103021 67 245 2.6 6.1 0.00 0.00 0.00 68 1011.5
20260507102021 66 173 3.5 7.0 0.00 0.00 0.00 70 1011.5
20260507101021 66 182 2.6 5.2 0.00 0.00 0.00 71 1011.5
20260507100021 66 152 1.7 4.3 0.00 0.00 0.00 74 1011.6
20260507095100 66 246 1.7 4.3 0.00 0.00 0.00 74 1011.7
20260507094021 65 197 1.7 5.2 0.00 0.00 0.00 76 1011.7
20260507093020 65 295 2.6 8.7 0.00 0.00 0.00 74 1011.8
20260507092020 65 197 2.6 4.3 0.00 0.00 0.00 73 1011.7
20260507091020 65 263 1.7 5.2 0.00 0.00 0.00 76 1011.8
20260507090021 64 294 4.3 8.7 0.00 0.00 0.00 76 1011.8
20260507085042 64 330 3.5 7.8 0.00 0.00 0.00 75 1011.9
20260507084041 63 318 3.5 8.7 0.00 0.00 0.00 77 1011.8
20260507083022 63 329 4.3 11.3 0.00 0.00 0.00 77 1011.7
20260507082021 63 313 2.6 9.6 0.00 0.00 0.00 78 1011.5